[[{"header":{"parameterUnit":"m.s-1","parameterCategory":1,"la1":30.2991,"la2":30.254,"lo1":-89.0895,"lo2":-89.0444,"dy":0.0017,"dx":0.0017,"nx":28,"ny":28,"refTime":"2025-06-05T03:00:00:Z","depth":0,"parameterNumber":2,"parameterNumberName":"U-component_of_WINDS"},"data":[0,0,0,0,0,0,0,0,0,0,0,0,0,0,0,0,0,0,0,0,0,0,0,0,0,0,0,0,0,0,0,0,0,0,0,0,0,0,0,0,0,0,0,0,0,0,0,0,0,0,0,0,0,0,0,0,0,0,-2.4843,-2.4843,0,-2.4924,-2.4925,-2.4926,-2.4927,-2.4926,-2.4925,-2.4924,-2.5006,-2.5009,-2.5012,0,0,0,0,0,0,0,0,0,0,0,0,0,-2.4684,-2.4687,-2.4842,-2.4844,-2.4845,-2.4924,-2.4925,-2.4927,-2.4928,-2.4926,-2.4925,-2.4924,-2.5005,-2.5008,-2.5012,0,0,0,0,0,0,0,0,0,0,0,0,0,-2.4758,-2.4688,-2.4842,-2.4855,-2.4857,-2.4924,-2.4925,-2.4927,-2.4928,-2.4926,-2.4925,-2.4923,-2.5003,-2.5008,-2.5013,-2.5072,0,0,-2.5027,-2.5029,0,0,0,0,0,0,0,0,-2.4754,-2.4764,-2.4852,-2.4854,-2.4856,-2.4914,-2.4899,-2.4975,-2.4928,-2.4901,-2.4924,-2.4923,-2.4976,-2.4983,-2.5002,-2.5076,-2.508,-2.5027,-2.503,-2.5032,-2.5034,0,0,0,0,0,0,0,-2.4748,-2.476,-2.4875,-2.4853,-2.4856,-2.4855,-2.4864,-2.4914,-2.4946,-2.4903,-2.4903,-2.4913,-2.4977,-2.4997,-2.5004,-2.5081,-2.5027,-2.5031,-2.5034,-2.5036,-2.5205,-2.5207,0,0,0,0,0,0,-2.4741,-2.4756,-2.4872,-2.4877,-2.48,-2.4859,-2.4869,-2.4897,-2.4946,-2.4952,-2.4914,-2.4913,-2.499,-2.4998,-2.5007,-2.5077,-2.5032,-2.5037,-2.5039,-2.5204,-2.5206,-2.5208,0,0,0,0,0,0,-2.4738,-2.4752,-2.4869,-2.4817,-2.4832,-2.4864,-2.4895,-2.49,-2.492,-2.4954,-2.496,-2.4929,-2.4989,-2.5,-2.5055,-2.508,-2.5039,-2.5043,-2.5202,-2.5204,-2.5207,-2.5221,0,0,0,0,0,0,-2.4733,-2.475,-2.4774,-2.4817,-2.4834,-2.4917,-2.4897,-2.4902,-2.4928,-2.4927,-2.4969,-2.4975,-2.4989,-2.5049,-2.506,-2.5086,-2.5047,-2.52,-2.5203,-2.5206,-2.5218,-2.5223,-2.5228,0,0,0,0,0,-2.4728,-2.4775,-2.4775,-2.4789,-2.4865,-2.4919,-2.4929,-2.4944,-2.493,-2.4953,-2.4975,-2.4974,-2.5076,-2.5054,-2.5067,-2.5095,-2.5198,-2.5202,-2.5206,-2.5216,-2.5222,-2.5228,0,0,0,0,0,0,-2.4733,-2.4781,-2.4782,-2.4845,-2.4878,-2.4919,-2.4949,-2.4951,-2.4988,-2.4985,-2.5003,-2.5012,-2.5067,-2.5087,-2.5061,-2.5154,-2.5135,-2.5142,-2.5138,-2.5145,-2.515,-2.5142,-2.505,0,0,0,0,0,-2.4742,-2.4783,-2.4822,-2.4873,-2.489,-2.4917,-2.4941,-2.495,-2.4985,-2.4998,-2.5025,-2.5057,-2.5097,-2.5122,-2.5161,-2.5222,-2.523,-2.5247,-2.5252,-2.5256,-2.526,-2.5292,-2.5299,-2.522,-2.522,-2.522,0,0,-2.476,-2.4791,-2.4815,-2.4875,-2.4902,-2.4942,-2.4928,-2.4972,-2.5002,-2.5005,-2.5058,-2.5079,-2.5117,-2.5174,-2.5201,-2.5192,-2.5284,-2.5261,-2.5263,-2.5266,-2.5296,-2.5304,-2.531,-2.5223,-2.5222,-2.5222,0,0,-2.4812,-2.4841,-2.4886,-2.4913,-2.4954,-2.4971,-2.4982,-2.5023,-2.5037,-2.5091,-2.5094,-2.5129,-2.5197,-2.5223,-2.5246,-2.5308,-2.5306,-2.532,-2.5344,-2.5375,-2.5381,-2.5386,-2.5406,-2.5413,-2.5325,-2.5325,-2.5325,0,-2.4829,-2.4891,-2.4909,-2.4952,-2.4977,-2.4983,-2.5027,-2.5053,-2.5104,-2.512,-2.5111,-2.5195,-2.5221,-2.5284,-2.5299,-2.5318,-2.5329,-2.5314,-2.5379,-2.5384,-2.539,-2.5408,-2.5416,-2.5326,-2.5326,-2.5326,-2.5326,0,-2.4908,-2.4951,-2.4982,-2.5031,-2.506,-2.5104,-2.5127,-2.5154,-2.5161,-2.5179,-2.5233,-2.5265,-2.5309,-2.5325,-2.5332,-2.5388,-2.5381,-2.5375,-2.5356,-2.5398,-2.5416,-2.5423,-2.5328,-2.5327,-2.5327,-2.5327,0,0,-2.4965,-2.5023,-2.5034,-2.5056,-2.5101,-2.5134,-2.5178,-2.5221,-2.5243,-2.5278,-2.5313,-2.5371,-2.5365,-2.539,-2.54,-2.5427,-2.5471,-2.5418,-2.5419,-2.5424,-2.5532,-2.5534,-2.5543,-2.5472,-2.5473,-2.5475,-2.5528,0,-2.502,-2.5098,-2.5115,-2.5182,-2.522,-2.5226,-2.5263,-2.5295,-2.5313,-2.5347,-2.5367,-2.5406,-2.5397,-2.5412,-2.5439,-2.546,-2.5493,-2.5457,-2.5502,-2.5504,-2.549,-2.5552,-2.5555,-2.5604,-2.5535,-2.5536,-2.5537,0,-2.5095,-2.5132,-2.5202,-2.5241,-2.5258,-2.5291,-2.5331,-2.5365,-2.54,-2.5411,-2.5439,-2.5446,-2.549,-2.5471,-2.553,-2.5506,-2.5526,-2.5539,-2.5541,-2.5544,-2.5521,-2.5554,-2.562,-2.5627,-2.5549,-2.5548,-2.5547,0,-2.5126,-2.5193,-2.5243,-2.5262,-2.531,-2.5332,-2.5353,-2.5387,-2.5411,-2.5447,-2.5462,-2.5502,-2.5523,-2.5553,-2.557,-2.5556,-2.5628,-2.5611,-2.5636,-2.5636,-2.5649,-2.5647,-2.5717,-2.5666,-2.5666,-2.5666,-2.5666,0,-2.5184,-2.5226,-2.5258,-2.5288,-2.5335,-2.5354,-2.5399,-2.542,-2.545,-2.5483,-2.5492,-2.5522,-2.5545,-2.5579,-2.5593,-2.5638,-2.5648,-2.5657,-2.566,-2.5655,-2.5653,-2.5666,-2.5662,-2.5668,-2.5668,-2.5667,-2.5667,0,-2.5225,-2.5249,-2.5303,-2.5344,-2.5355,-2.5387,-2.5421,-2.545,-2.5469,-2.5511,-2.5522,-2.5551,-2.5591,-2.5612,-2.5662,-2.5671,-2.5722,-2.5724,-2.571,-2.571,-2.5733,-2.573,-2.5811,-2.5822,-2.5767,-2.5767,-2.5768,0,-2.526,-2.5292,-2.5336,-2.536,-2.5381,-2.5418,-2.5443,-2.5463,-2.5489,-2.553,-2.5554,-2.5595,-2.5628,-2.5692,-2.5716,-2.5754,-2.5756,-2.5782,-2.5761,-2.5755,-2.5753,-2.575,-2.5752,-2.5784,-2.5785,-2.5785,-2.5786,0,-2.5317,-2.5327,-2.5363,-2.5403,-2.5433,-2.5465,-2.5497,-2.5516,-2.554,-2.5568,-2.561,-2.5636,-2.5687,-2.5726,-2.5766,-2.5786,-2.5789,-2.5792,-2.58,-2.5794,-2.5783,-2.5786,-2.5716,-2.579,-2.5789,-2.5789,-2.5789,-2.5789,-2.5355,-2.5383,-2.5418,-2.5457,-2.5484,-2.5513,-2.5542,-2.5564,-2.5599,-2.5642,-2.5652,-2.5695,-2.5728,-2.5782,-2.5803,-2.5836,-2.583,-2.5842,-2.5844,-2.5846,-2.5846,-2.578,-2.5844,-2.5844,-2.5843,-2.5843,-2.5843,0,-2.541,-2.5433,-2.5469,-2.5514,-2.5544,-2.5546,-2.5581,-2.5606,-2.5644,-2.5675,-2.5708,-2.5754,-2.5793,-2.582,-2.5859,-2.588,-2.5882,-2.5889,-2.5887,-2.5891,-2.585,-2.5838,-2.5887,-2.5887,-2.5887,-2.5887,-2.5887,-2.5887,-2.5443,-2.549,-2.5504,-2.5563,-2.5586,-2.5628,-2.5648,-2.5674,-2.5699,-2.575,-2.5782,-2.5801,-2.583,-2.587,-2.5905,-2.5912,-2.5925,-2.5931,-2.5938,-2.5899,-2.5894,-2.5889,-2.5878,-2.5935,-2.5935,-2.5976,-2.5976,-2.5976]},{"header":{"parameterUnit":"m.s-1","parameterCategory":1,"la1":30.2991,"la2":30.254,"lo1":-89.0895,"lo2":-89.0444,"dy":0.0017,"dx":0.0017,"nx":28,"ny":28,"refTime":"2025-06-05T03:00:00:Z","depth":0,"parameterNumber":3,"parameterNumberName":"V-component_of_WINDS"},"data":[0,0,0,0,0,0,0,0,0,0,0,0,0,0,0,0,0,0,0,0,0,0,0,0,0,0,0,0,0,0,0,0,0,0,0,0,0,0,0,0,0,0,0,0,0,0,0,0,0,0,0,0,0,0,0,0,0,0,1.1054,1.1054,0,1.1076,1.1077,1.1077,1.1057,1.1056,1.1055,1.1054,1.1076,1.1077,1.1078,0,0,0,0,0,0,0,0,0,0,0,0,0,1.0993,1.0994,1.1054,1.1054,1.1054,1.1076,1.1077,1.1077,1.1057,1.1056,1.1055,1.1054,1.1075,1.1077,1.1079,0,0,0,0,0,0,0,0,0,0,0,0,0,1.1018,1.0995,1.1054,1.1047,1.1047,1.1076,1.1077,1.1077,1.1057,1.1056,1.1054,1.1053,1.1075,1.1077,1.1079,1.1116,0,0,1.1085,1.1086,0,0,0,0,0,0,0,0,1.1016,1.102,1.1048,1.1048,1.1047,1.1062,1.1063,1.109,1.1057,1.1053,1.1054,1.1053,1.1072,1.1074,1.1081,1.1117,1.1118,1.1085,1.1086,1.1087,1.1088,0,0,0,0,0,0,0,1.1015,1.1019,1.1063,1.1048,1.1048,1.1043,1.1045,1.1068,1.1069,1.1053,1.1052,1.1055,1.1072,1.1079,1.1082,1.1118,1.1085,1.1087,1.1088,1.1089,1.1187,1.1188,0,0,0,0,0,0,1.1014,1.1018,1.1062,1.1063,1.1029,1.1045,1.1047,1.1059,1.1069,1.1069,1.1056,1.1054,1.1077,1.1079,1.1082,1.1127,1.1087,1.1089,1.109,1.1185,1.1187,1.1189,0,0,0,0,0,0,1.1013,1.1018,1.1061,1.104,1.1045,1.1047,1.106,1.106,1.1067,1.1071,1.1071,1.1063,1.1076,1.108,1.1108,1.1128,1.109,1.1092,1.1184,1.1186,1.1188,1.1217,0,0,0,0,0,0,1.1011,1.1018,1.1032,1.1041,1.1047,1.1087,1.1061,1.1061,1.1071,1.1069,1.1078,1.1078,1.1075,1.1105,1.111,1.113,1.1093,1.1182,1.1185,1.1187,1.1214,1.122,1.1225,0,0,0,0,0,1.1009,1.1039,1.1033,1.1038,1.1064,1.1088,1.1091,1.1087,1.1073,1.1087,1.109,1.1078,1.1125,1.1108,1.1114,1.1134,1.1181,1.1184,1.1187,1.1212,1.1219,1.1224,0,0,0,0,0,0,1.1031,1.104,1.1033,1.1067,1.1077,1.1084,1.1102,1.1094,1.1108,1.1105,1.1099,1.1102,1.1132,1.1136,1.1117,1.1171,1.115,1.1155,1.1168,1.1174,1.1179,1.1178,1.1095,0,0,0,0,0,1.104,1.1059,1.1065,1.1094,1.11,1.11,1.111,1.1106,1.1116,1.112,1.1125,1.1135,1.1152,1.1163,1.1179,1.1215,1.1217,1.1232,1.1237,1.1241,1.1245,1.1265,1.1272,1.1199,1.1199,1.1199,0,0,1.1058,1.1065,1.1077,1.1099,1.1106,1.1126,1.1104,1.1125,1.114,1.1123,1.1151,1.1155,1.1166,1.1198,1.1213,1.1203,1.1266,1.1245,1.1248,1.125,1.1269,1.1276,1.1282,1.1201,1.1201,1.12,0,0,1.1102,1.1109,1.1135,1.1143,1.1155,1.1155,1.1161,1.117,1.1173,1.12,1.1189,1.1206,1.1235,1.1244,1.1252,1.13,1.1291,1.1306,1.1332,1.1352,1.1358,1.1363,1.1381,1.1387,1.131,1.131,1.131,0,1.1123,1.1153,1.1148,1.1171,1.1181,1.1168,1.1194,1.1202,1.1219,1.1226,1.1214,1.1251,1.1258,1.1293,1.1305,1.1311,1.1319,1.1304,1.1358,1.1363,1.1367,1.1384,1.1391,1.1311,1.1311,1.1311,1.1311,0,1.1179,1.1199,1.1218,1.1235,1.1247,1.1271,1.1271,1.1284,1.1279,1.1281,1.131,1.1317,1.1335,1.1343,1.1338,1.1377,1.1371,1.1359,1.1337,1.1376,1.1392,1.1398,1.1314,1.1313,1.1313,1.1312,0,0,1.1236,1.1252,1.1259,1.1267,1.1279,1.1295,1.1319,1.1337,1.1348,1.136,1.138,1.1406,1.1395,1.1404,1.1401,1.1418,1.1457,1.1404,1.1404,1.1414,1.1502,1.1511,1.1518,1.1451,1.1452,1.1453,1.1501,0,1.1281,1.1323,1.132,1.1359,1.1379,1.1368,1.1388,1.1399,1.1401,1.1418,1.142,1.1439,1.1423,1.1429,1.1445,1.1449,1.1474,1.1445,1.1469,1.147,1.1467,1.1527,1.1536,1.1581,1.1507,1.1508,1.1509,0,1.1338,1.1353,1.1395,1.1406,1.1414,1.1432,1.1449,1.1465,1.1477,1.1477,1.1489,1.1482,1.1507,1.1485,1.1519,1.1499,1.1509,1.1512,1.1514,1.1516,1.1492,1.1531,1.1595,1.1602,1.1518,1.1518,1.1517,0,1.1377,1.1407,1.1436,1.1443,1.1457,1.147,1.1476,1.1487,1.1498,1.1513,1.152,1.1537,1.1546,1.156,1.1559,1.1543,1.1593,1.1571,1.1594,1.1595,1.1605,1.1605,1.1673,1.1611,1.1611,1.1611,1.1611,0,1.1427,1.1453,1.1454,1.1472,1.1501,1.1498,1.1527,1.1531,1.1541,1.1559,1.1551,1.1568,1.1565,1.1583,1.1582,1.1611,1.1615,1.1616,1.1616,1.1617,1.1617,1.1624,1.162,1.1613,1.1613,1.1612,1.1612,0,1.1475,1.1476,1.1507,1.1518,1.1521,1.1542,1.1551,1.1568,1.1571,1.1595,1.16,1.1603,1.1624,1.1624,1.1647,1.1647,1.1682,1.1677,1.1678,1.1677,1.1701,1.1699,1.1775,1.1786,1.1717,1.1718,1.1719,0,1.1507,1.1527,1.154,1.1552,1.1559,1.1579,1.1591,1.1589,1.1601,1.1617,1.1632,1.1652,1.1668,1.1702,1.1706,1.1724,1.172,1.1746,1.1723,1.1724,1.1721,1.172,1.1722,1.175,1.1751,1.1752,1.1752,0,1.1564,1.1564,1.1581,1.16,1.1614,1.1628,1.1641,1.1652,1.1652,1.1666,1.1688,1.17,1.1725,1.1745,1.1762,1.1768,1.1761,1.176,1.1766,1.1768,1.1768,1.1769,1.1691,1.1758,1.1757,1.1757,1.1757,1.1756,1.1605,1.1622,1.1635,1.1655,1.1665,1.1678,1.1695,1.1699,1.1717,1.1737,1.1735,1.1759,1.1771,1.1794,1.1802,1.1821,1.1812,1.1821,1.1823,1.1826,1.1828,1.1765,1.1824,1.1824,1.1823,1.1823,1.1823,0,1.1662,1.1669,1.1688,1.1707,1.1723,1.1715,1.1729,1.1743,1.1765,1.1777,1.1793,1.1818,1.1838,1.1844,1.1863,1.1877,1.1874,1.1882,1.1881,1.1883,1.1835,1.1828,1.1885,1.1884,1.1884,1.1884,1.1884,1.1884,1.1693,1.1723,1.1725,1.1759,1.1767,1.1791,1.18,1.1811,1.1821,1.185,1.1866,1.1871,1.1881,1.1901,1.1919,1.192,1.1928,1.1937,1.1937,1.1892,1.1886,1.188,1.1874,1.1939,1.1939,1.1984,1.1984,1.1985]}]]